Killeen/Ft Hood, TX

10:46 AM CDT on October 18, 2017 (GMT -0500)
Hood Army Air Field

Weather History for KHLR - October, 2014

Change the Weather History Date:

Wednesday, October 8, 2014

  Actual Average Record
Temperature  
Mean Temperature 82 °F -  
Max Temperature 93 °F 79 °F 93 °F (2014)
Min Temperature 73 °F 61 °F 50 °F (2012)
Cooling Degree Days 17    
Growing Degree Days 32 (Base 50)    
Moisture  
Dew Point 68 °F    
Average Humidity 66    
Maximum Humidity 89    
Minimum Humidity 33    
Precipitation  
Precipitation 0.00 in - - ()
Sea Level Pressure  
Sea Level Pressure 30.00 in    
Wind  
Wind Speed 9 mph (SSE)    
Max Wind Speed 17 mph    
Max Gust Speed 22 mph    
Visibility 10 miles    
Events      
Averages and records for this station are not official NWS values.
T = Trace of Precipitation, MM = Missing Value Source: NWS Daily Summary

Daily Weather History Graph

Daily Weather History Graph

Search for Another Location

Airport or City:

Trip Planner

Search our weather history database for the weather conditions in past years. The results will help you decide how hot, cold, wet, or windy it might be!

Date:

Astronomy

Oct. 08, 2014 Rise Set
Actual Time 7:28 AM CDT 7:07 PM CDT
Civil Twilight 7:04 AM CDT 7:31 PM CDT
Nautical Twilight 6:36 AM CDT 7:59 PM CDT
Astronomical Twilight 6:08 AM CDT 8:27 PM CDT
Moon 7:26 PM CDT (10/8) 7:35 AM CDT (10/8)
Length of Visible Light 12h 26m
Length of Day
11h 38m
Full, 100% of the Moon is Illuminated
Oct 8
Full
Oct 15
Last Quarter
Oct 23
New
Oct 30
First Quarter
Nov 6
Full

Hourly Weather History & Observations

Time (CDT) Temp. Heat Index Dew Point Humidity Pressure Visibility Wind Dir Wind Speed Gust Speed Precip Events Conditions
12:56 AM 78.1 °F - 69.1 °F 74% 29.97 in 10.0 mi SSE 9.2 mph - N/A   Clear
1:56 AM 75.9 °F - 70.0 °F 82% 29.97 in 10.0 mi SE 10.4 mph - N/A   Clear
2:56 AM 75.0 °F - 70.0 °F 84% 29.99 in 10.0 mi SE 6.9 mph - N/A   Clear
3:42 AM 75.2 °F - 71.6 °F 89% 29.99 in 10.0 mi SE 6.9 mph - N/A   Mostly Cloudy
3:56 AM 75.0 °F - 71.1 °F 87% 29.99 in 10.0 mi SSE 6.9 mph - N/A   Overcast
4:44 AM 75.2 °F - 71.6 °F 89% 30.00 in 10.0 mi SSE 9.2 mph - N/A   Overcast
4:56 AM 75.9 °F - 70.0 °F 82% 30.00 in 10.0 mi SSE 12.7 mph 18.4 mph N/A   Overcast
5:56 AM 77.0 °F - 69.1 °F 76% 30.01 in 10.0 mi South 10.4 mph 20.7 mph N/A   Overcast
6:56 AM 75.0 °F - 69.1 °F 82% 30.08 in 10.0 mi SSE 5.8 mph - N/A   Scattered Clouds
7:56 AM 73.9 °F - 69.1 °F 85% 30.03 in 10.0 mi SE 4.6 mph - N/A   Clear
8:56 AM 77.0 °F - 71.1 °F 82% 30.04 in 10.0 mi SSE 6.9 mph - N/A   Clear
9:32 AM 78.8 °F - 71.6 °F 78% 30.04 in 10.0 mi South 10.4 mph - N/A   Mostly Cloudy
9:56 AM 80.1 °F 83.6 °F 71.1 °F 74% 30.11 in 10.0 mi South 10.4 mph - N/A   Mostly Cloudy
10:29 AM 80.6 °F 83.9 °F 69.8 °F 70% 30.05 in 10.0 mi South 11.5 mph - N/A   Scattered Clouds
10:56 AM 84.0 °F 89.0 °F 71.1 °F 65% 30.05 in 10.0 mi SSE 10.4 mph - N/A   Mostly Cloudy
11:29 AM 84.2 °F 88.4 °F 69.8 °F 62% 30.04 in 10.0 mi SSE 13.8 mph 19.6 mph N/A   Scattered Clouds
11:56 AM 87.1 °F 91.3 °F 69.1 °F 55% 30.09 in 10.0 mi SSE 10.4 mph - N/A   Clear
12:56 PM 89.1 °F 91.3 °F 66.0 °F 46% 30.01 in 10.0 mi SSE 17.3 mph - N/A   Clear
1:56 PM 90.0 °F 91.3 °F 64.0 °F 42% 29.99 in 10.0 mi SE 13.8 mph 21.9 mph N/A   Clear
2:56 PM 91.9 °F 92.9 °F 63.0 °F 38% 29.97 in 10.0 mi SSE 15.0 mph 20.7 mph N/A   Clear
3:56 PM 91.9 °F 92.5 °F 62.1 °F 37% 29.96 in 10.0 mi SE 12.7 mph 18.4 mph N/A   Clear
4:56 PM 91.9 °F 91.2 °F 59.0 °F 33% 29.95 in 10.0 mi SSE 11.5 mph - N/A   Clear
5:56 PM 89.1 °F 89.3 °F 62.1 °F 40% 29.95 in 10.0 mi SSE 11.5 mph 19.6 mph N/A   Clear
6:56 PM 86.0 °F 86.8 °F 63.0 °F 46% 29.95 in 10.0 mi SSE 8.1 mph - N/A   Clear
7:56 PM 84.0 °F 85.4 °F 64.0 °F 51% 29.95 in 10.0 mi SE 5.8 mph - N/A   Clear
8:56 PM 82.0 °F 84.1 °F 66.0 °F 58% 29.97 in 10.0 mi SE 8.1 mph - N/A   Clear
9:56 PM 81.0 °F 83.8 °F 68.0 °F 65% 29.98 in 10.0 mi ESE 4.6 mph - N/A   Mostly Cloudy
10:56 PM 81.0 °F 84.4 °F 70.0 °F 69% 29.99 in 10.0 mi SE 9.2 mph - N/A   Partly Cloudy
11:56 PM 79.0 °F - 70.0 °F 74% 29.99 in 10.0 mi SE 8.1 mph - N/A   Clear